Location: Brno
(49.2000°N, 16.6330°E)
Time: 10:54:15
(UTC+02:00)

ISS - Pass Details

Date: 18 May 2021
Orbit: 417 x 422 km, 51.6° (Epoch: 13 June)

Event Time Altitude Azimuth Distance (km) Brightness Sun altitude
Rises 21:16:39 0° 235° (SW) 2,354 0.2 -6.4°
Reaches altitude 10° 21:18:46 10° 231° (SW) 1,494 -0.8 -6.7°
Maximum altitude 21:22:03 55° 153° (SSE) 512 -3.6 -7.1°
Drops below altitude 10° 21:25:21 10° 75° (ENE) 1,504 -1.3 -7.5°
Sets 21:27:29 0° 70° (ENE) 2,371 -0.2 -7.7°
